{"data":{"norad_id":40080,"epoch":"2026-09-19T19:12:03.063744Z","epoch_age_seconds":74831,"freshness":"FRESH","line1":"1 40080U 14038B   26262.80003546 -.00000027  00000+0  00000+0 0  9990","line2":"2 40080   0.0419 349.8003 0002835 148.0762 222.1475  5.00115746222605","mean_motion":5.00115746,"eccentricity":0.0002835,"inclination_deg":0.0419,"raan_deg":349.8003,"arg_perigee_deg":148.0762,"mean_anomaly_deg":222.1475,"bstar":0,"rev_number":22260,"period_min":287.93334573393,"perigee_km":8061.7906013697,"apogee_km":8069.9803621168,"semimajor_km":14444.022481743,"source":"CELESTRAK","updated_at":"2026-09-20T09:00:35.682710Z"}}